Location: Pabrico
(37.5827°N, 122.0063°W)
Time: 23:43:43
(UTC+00:00)

Iridium 51 - Pass Details

Date: 13 April 2024
Orbit: 435 x 635 km, 86.4° (Epoch: 21 May)

Event Time Altitude Azimuth Distance (km) Brightness Sun altitude
Exits shadow 12:18:04 10° 182° (S) 1,601 6.4 -15.3°
Reaches altitude 10° 12:18:07 10° 182° (S) 1,585 6.4 -15.3°
Maximum altitude 12:21:31 87° 268° (W) 449 3.8 -14.6°
Drops below altitude 10° 12:24:52 10° 1° (N) 1,552 7.0 -14.0°
Sets 12:26:54 0° 2° (N) 2,422 8.0 -13.7°
